FW7134 Weather Reports


time (UTC)temp
C
wind
direction
speed
KPH
gust
KPH
rain 1hr
cm
rain 24hr
cm
rain mn
cm
humidity
%
barometer
mb
20260504191547 12 244 20.9 40.2 0.00 1.75 0.10 100 1000.6
20260504190055 12 259 16.1 41.8 0.00 1.75 0.10 100 1000.4
20260504184558 12 254 19.3 40.2 0.00 1.75 0.10 100 1000.2
20260504183041 12 238 20.9 49.9 0.00 1.75 0.10 100 999.8
20260504181538 11 274 17.7 46.7 0.00 1.75 0.10 100 999.9
20260504180034 12 259 19.3 53.1 0.00 1.75 0.10 100 999.9
20260504174533 12 245 24.1 43.5 0.00 1.75 0.10 100 999.6
20260504173031 11 279 32.2 53.1 0.00 1.75 0.10 100 999.4
20260504171538 11 259 30.6 48.3 0.00 1.75 0.10 100 999.5
20260504044540 3 281 6.4 17.7 0.03 1.40 0.08 100 977.2
20260504043030 4 305 1.6 14.5 0.03 1.40 0.08 100 976.7
20260504041531 4 309 1.6 8.0 0.05 1.40 0.08 100 976.5
20260504040027 4 344 4.8 12.9 0.05 1.37 0.05 100 976.3
20260504034525 4 320 3.2 8.0 0.08 1.37 0.05 100 976.2
20260504033025 4 337 4.8 12.9 0.08 1.37 0.05 100 976.0
20260504031522 3 336 3.2 8.0 0.05 1.35 0.03 100 976.1
20260504030028 3 74 0.0 4.8 0.05 1.32 1.32 100 976.2
20260504024517 3 48 1.6 17.7 0.05 1.30 1.30 100 976.5
20260504023016 4 64 6.4 19.3 0.05 1.30 1.30 100 976.6
20260504021514 4 49 4.8 24.1 0.05 1.30 1.30 100 976.8
20260504020016 4 88 11.3 24.1 0.05 1.27 1.27 100 977.1
20260504014507 5 82 12.9 25.7 0.03 1.24 1.24 100 977.6
20260504013009 5 68 14.5 32.2 0.03 1.24 1.24 100 977.7
20260504011505 5 92 19.3 33.8 0.03 1.24 1.24 100 978.4
20260504010002 4 84 14.5 29.0 0.00 1.22 1.22 100 979.3
20260504004558 4 83 8.0 24.1 0.00 1.22 1.22 100 980.0
20260504003100 4 67 11.3 27.4 0.00 1.22 1.22 100 980.6
20260504001554 4 69 14.5 30.6 0.00 1.22 1.22 100 981.8
20260504000049 4 80 22.5 38.6 0.00 1.22 1.22 100 982.7
20260503234549 4 71 19.3 35.4 0.00 1.22 1.22 100 983.5
20260503233042 3 96 16.1 30.6 0.08 1.22 1.22 100 983.8
20260503231541 3 71 12.9 27.4 0.25 1.22 1.22 100 984.6
20260503230044 3 125 14.5 33.8 0.38 1.22 1.22 100 985.3
20260503224533 3 11 12.9 29.0 0.46 1.22 1.22 100 986.6
20260503223029 3 37 11.3 37.0 0.43 1.14 1.14 100 987.4
20260503221527 3 76 19.3 29.0 0.28 0.97 0.97 100 988.7
20260503220039 4 66 16.1 30.6 0.25 0.84 0.84 100 989.6
20260503214518 4 55 14.5 30.6 0.30 0.76 0.76 100 990.3
20260503213017 4 55 14.5 27.4 0.33 0.71 0.71 100 991.2
20260503211513 5 71 16.1 29.0 0.30 0.69 0.69 100 992.1
20260503210010 5 96 16.1 30.6 0.28 0.58 0.58 100 992.9
20260503204507 5 84 20.9 32.2 0.20 0.46 0.46 100 993.5
20260503203013 5 76 19.3 32.2 0.20 0.38 0.38 100 993.8
20260503201505 5 93 20.9 35.4 0.25 0.36 0.36 100 994.1
20260503200104 5 81 19.3 32.2 0.20 0.30 0.30 100 995.1
20260503194556 5 80 14.5 29.0 0.18 0.25 0.25 100 995.8
20260503193103 5 84 16.1 29.0 0.10 0.18 0.18 100 996.9